Overview Statistics Trail Chart Weather Telemetry Raw packets
 

This is the latest recevied weather packets stored in our database for station/object KGRR-WX. If no packets are shown the sender has not sent any weather packets the latest 10 day(s).

<< 23 24 25 26 27 28 29 >>
Time Temp. Humidity Pressure Rain* Wind** Luminosity Snow
1788045305 22.22° C 66% 989.6 hPa 0 mm - - -
1788044408 22.78° C 66% 989.6 hPa 0 mm - - -
1788043505 22.78° C 62% 990.6 hPa 0 mm - - -
1788042608 25° C 51% 990.1 hPa 0 mm - - -
1788041705 25° C 46% 990.2 hPa 0 mm - - -
1788040805 25.56° C 46% 990.2 hPa 0 mm - - -
1788039917 25.56° C 50% 990.8 hPa 0 mm - - -
1788039007 25.56° C 50% 990.8 hPa 0 mm - - -
1788038105 25.56° C 50% 990.8 hPa 0 mm - - -
1788037220 25.56° C 50% 990.8 hPa 0 mm - - -
1788036304 25° C 53% 991.7 hPa 0 mm - - -
1788035407 25.56° C 48% 991.1 hPa 0 mm - - -
1788034513 26.67° C 48% 991.1 hPa 0 mm - - -
1788033605 26.67° C 48% 991.1 hPa 0 mm - - -
1788032705 26.11° C 48% 991.3 hPa 0 mm - - -
1788031805 26.11° C 48% 991.3 hPa 0 mm - - -
1788030906 26.67° C 48% 991.4 hPa 0 mm - - -
1788030006 26.67° C 48% 991.4 hPa 0 mm - - -
1788029105 26.11° C 43% 992.3 hPa 0 mm - - -
1788028205 27.22° C 43% 992.4 hPa 0 mm - - -
1788027305 26.67° C 43% 992.4 hPa 0 mm - - -
1788026405 26.67° C 43% 992.4 hPa 0 mm - - -
1788025504 26.67° C 47% 992.9 hPa 0 mm - - -
1788024605 26.67° C 40% 992.4 hPa 0 mm - - -
1788023705 26.67° C 40% 992.4 hPa 0 mm - - -

* Rain latest hour (hover to see other rain measurements)
** Current wind speed in m/s (hover to see current wind gust speed)